Погода в Пушкино

Россия / Хабаровский край     47°08′01″N   134°22′47″E
темп.,
°C
ветер,
м/с
пор.,
м/с
влажн.,
%
обл.,
%
осадки,
мм/ч
давл.,
гПа
погр.,
м
26 января, вт
вт2601:00−16в127775 0.0 102921
04:00−14вюв118088 0.0 102623
07:00−11юв2396100 0.9 1024127
10:00−9юв2594100 2.6 1021201
13:00−6ю3893100 1.8 1019533
16:00−5ю2495100 3.7 1017344
19:00−8сз2297100 2.0 101790
22:00−12ссз2298100 2.4 101650
27 января, ср
ср2701:00−17з11100100 0.0 101621
04:00−21з11100100 0.1 101620
07:00−22зюз1110099 0.0 101724
10:00−20юз129999 0.1 1018100
13:00−17зюз3893100 0.1 1019703
16:00−16з497783 0.2 10191165
19:00−19зюз269998 0.3 1020218
22:00−22юз399382 0.4 1021219
28 января, чт
чт2801:00−25юз259249 0.0 1022112
04:00−26ююз229425 0.0 102343
07:00−26ю22970 0.0 102327
10:00−23ю23920 0.0 102389
13:00−16зюз11740 0.0 1022535
16:00−17с227926 0.0 1019522
19:00−23всв229278 0.0 102020
22:00−21св229087 0.0 101928
29 января, пт
пт2901:00−23св3392100 0.0 101869
04:00−25ссв338899 0.0 101776
07:00−26с3594100 0.0 1015118
10:00−25ссз2492100 0.0 1018170
13:00−23ссз3592100 0.0 1016332
16:00−22ссз2496100 0.1 1017411
19:00−24зсз2399100 0.3 1020152
22:00−26зюз1299100 0.3 1021121
30 января, сб
сб3001:00−27юз2398100 0.1 1022146
04:00−28юз2497100 0.1 1024168
07:00−29ююз1293100 0.0 102572
10:00−28ююз128882 0.0 1027109
13:00−23юз23790 0.0 1026528
16:00−21юз23818 0.0 1025556
19:00−28ююз129543 0.0 102619
22:00−29ююв129326 0.0 102620